Flag for Germany Weather past 2 weeks in Germering, Bavaria, Germany

Now
30 °F

Heavy snow. Ice fog.


Feels Like: 23 °F
Forecast: 30 / 34 °F
Wind: 8 mph from Northwest

Location: Oberpfaffenhofen

Current Time: Jan 27, 2015 at 8:36:47 PM

Latest Report: Jan 27, 2015 at 7:50 PM


Visibility: 2 mi

Pressure: 30.12 "Hg

Humidity: 93%

Dew point: 28 °F

Location of GermeringLocation

Historic Weather in Germering — Graph

°F

Germering temperature yesterday

Maximum temperature yesterday: 34 °F (at 3:20 PM)
Minimum temperature yesterday: 27 °F (at 6:50 AM)
Average temperature yesterday: 30 °F

Past Weeks' High & Low Weather Summary

 TemperatureHumidityPressure
High55 °F (Jan 13, 12:20 PM)100% (Jan 17, 10:20 AM)30.33 "Hg (Jan 17, 10:20 AM)
Low23 °F (Jan 19, 6:50 PM)18% (Jan 13, 12:20 PM)29.65 "Hg (Jan 16, 4:20 PM)
Average34 °F81%29.96 "Hg
* Reported Jan 12 7:20 PM — Jan 27 7:20 PM, Germering, Weather by CustomWeather, © 2014

Note: Actual official high and low records may vary slightly from our data, if they occured in-between our weather recording intervals... More about our weather records

Advertising

Germering weather history for previous 24 hours

 ConditionsComfort  
Time TempWeatherWind HumidityBarometerVisibility
7:20 PM
Jan 27
30 °FSnow. Ice fog.12 mph100%30.12 "Hg2 mi
6:56 PM30 °FLight snow. Ice fog.9 mph100%30.12 "Hg3 mi
6:50 PM30 °FHeavy snow. Passing clouds.9 mph100%30.12 "Hg4 mi
6:20 PM30 °FIce fog.13 mph100%30.09 "Hg2 mi
5:50 PM30 °FSnow. Ice fog.13 mph100%30.09 "Hg1 mi
5:20 PM30 °FLight snow. Ice fog.14 mph100%30.09 "Hg1 mi
4:50 PM30 °FLight snow. Partly sunny.10 mph100%30.09 "Hg3 mi
4:20 PM30 °FLight snow. Partly sunny.14 mph100%30.09 "Hg1 mi
3:50 PM32 °FLight snow. Low clouds.13 mph93%30.09 "Hg2 mi
3:20 PM32 °FLight snow. Partly sunny.12 mph93%30.09 "Hg2 mi
2:50 PM32 °FSnow flurries. Broken clouds.13 mph93%30.09 "Hg5 mi
2:20 PM32 °FSnow flurries. Partly sunny.12 mph93%30.09 "HgN/A
1:50 PM32 °FBroken clouds.12 mph93%30.09 "HgN/A
1:20 PM32 °FPartly sunny.10 mph93%30.09 "HgN/A
12:50 PM32 °FSnow flurries. Partly sunny.10 mph93%30.12 "Hg6 mi
12:20 PM32 °FPartly sunny.13 mph93%30.12 "HgN/A
11:50 AM32 °FSnow flurries. Partly sunny.12 mph93%30.12 "HgN/A
11:20 AM32 °FPartly sunny.15 mph93%30.12 "HgN/A
10:50 AM30 °FSnow flurries. Partly sunny.13 mph100%30.12 "HgN/A
10:20 AM32 °FHeavy snow. Low clouds.12 mph93%30.09 "Hg1 mi
9:50 AM32 °FSprinkles. Broken clouds.12 mph93%30.09 "Hg5 mi
9:20 AM32 °FSnow flurries. Broken clouds.12 mph93%30.09 "Hg5 mi
8:50 AM32 °FLight snow. Broken clouds.9 mph93%30.09 "Hg5 mi
8:20 AM32 °FBroken clouds.10 mph93%30.09 "HgN/A
7:50 AM32 °FMore clouds than sun.9 mph93%30.09 "HgN/A
7:20 AM32 °FPartly cloudy.12 mph93%30.09 "HgN/A
6:50 AM32 °FLight snow. Partly cloudy.9 mph93%30.07 "HgN/A
Weather by CustomWeather, © 2014

See weather overviewHow to use our weather pages